TimeCDT,TemperatureF,Dew PointF,Humidity,Sea Level PressureIn,VisibilityMPH,Wind Direction,Wind SpeedMPH,Gust SpeedMPH,PrecipitationIn,Events,Conditions,WindDirDegrees,DateUTC
12:53 AM,60.1,55.0,83,30.03,10.0,West,3.5,-,N/A,,Clear,260,2012-10-15 05:53:00
1:53 AM,57.0,54.0,89,30.04,10.0,Calm,Calm,-,N/A,,Clear,0,2012-10-15 06:53:00
2:53 AM,57.0,54.0,89,30.03,10.0,Calm,Calm,-,N/A,,Clear,0,2012-10-15 07:53:00
3:53 AM,55.9,53.1,90,30.03,10.0,Calm,Calm,-,N/A,,Clear,0,2012-10-15 08:53:00
4:53 AM,54.0,52.0,93,30.04,10.0,Calm,Calm,-,N/A,,Clear,0,2012-10-15 09:53:00
5:53 AM,53.1,52.0,96,30.04,10.0,SSW,3.5,-,N/A,,Clear,210,2012-10-15 10:53:00
6:53 AM,51.1,51.1,100,30.05,4.0,Calm,Calm,-,N/A,,Clear,0,2012-10-15 11:53:00
7:53 AM,52.0,52.0,100,30.06,10.0,Calm,Calm,-,N/A,,Clear,0,2012-10-15 12:53:00
8:53 AM,57.9,54.0,87,30.08,10.0,Calm,Calm,-,N/A,,Clear,0,2012-10-15 13:53:00
9:53 AM,64.0,55.0,73,30.10,10.0,Calm,Calm,-,N/A,,Clear,0,2012-10-15 14:53:00
10:53 AM,70.0,48.0,46,30.10,10.0,Calm,Calm,-,N/A,,Clear,0,2012-10-15 15:53:00
11:53 AM,71.1,50.0,47,30.09,10.0,Calm,Calm,-,N/A,,Clear,0,2012-10-15 16:53:00
12:53 PM,73.0,48.9,42,30.07,10.0,Calm,Calm,-,N/A,,Clear,0,2012-10-15 17:53:00
1:53 PM,75.0,51.1,43,30.04,10.0,SE,3.5,-,N/A,,Clear,140,2012-10-15 18:53:00
2:53 PM,75.0,48.9,40,30.01,10.0,Variable,3.5,-,N/A,,Clear,0,2012-10-15 19:53:00
3:53 PM,75.9,50.0,40,29.99,10.0,SW,6.9,-,N/A,,Clear,220,2012-10-15 20:53:00
4:53 PM,75.9,50.0,40,29.97,10.0,WSW,4.6,-,N/A,,Clear,240,2012-10-15 21:53:00
5:53 PM,73.9,51.1,45,29.96,10.0,SW,4.6,-,N/A,,Clear,230,2012-10-15 22:53:00
6:53 PM,69.1,57.0,65,29.97,10.0,SSW,3.5,-,N/A,,Clear,200,2012-10-15 23:53:00
7:53 PM,64.9,57.9,78,29.99,10.0,Calm,Calm,-,N/A,,Clear,0,2012-10-16 00:53:00
8:53 PM,63.0,57.0,81,29.99,10.0,Calm,Calm,-,N/A,,Clear,0,2012-10-16 01:53:00
9:53 PM,61.0,55.9,83,29.99,10.0,South,3.5,-,N/A,,Clear,190,2012-10-16 02:53:00
10:53 PM,59.0,55.0,87,30.00,10.0,SW,3.5,-,N/A,,Clear,220,2012-10-16 03:53:00
11:53 PM,57.9,55.0,90,29.99,10.0,Calm,Calm,-,N/A,,Clear,0,2012-10-16 04:53:00